Home > Weather > Steinbach > Past weeks

Flag for Canada Weather for the Past 2 Weeks in Steinbach, Manitoba, Canada

Now
17 °F

Cold.


Feels Like: 9 °F
Forecast: N/A
Wind: 6 mph from South

Location: Winnipeg The Forks Man

Current Time: Feb 14, 2016 at 3:37:30 PM

Latest Report: Feb 14, 2016 at 3:00 PM


Visibility: N/A

Pressure: 29.76 "Hg

Humidity: 79%

Dew point: 12 °F

Location of SteinbachLocation

Historic Weather in Steinbach — Graph

°F

Steinbach Temperature Yesterday

Maximum temperature yesterday: 11 °F (at 11:00 PM)
Minimum temperature yesterday: -16 °F (at 7:00 AM)
Average temperature yesterday: -3 °F

High & Low Weather Summary for the Past Weeks

 TemperatureHumidityPressure
High35 °F (Jan 30, 2:00 PM)99% (Feb 7, 7:00 AM)30.77 "Hg (Feb 7, 7:00 AM)
Low-16 °F (Feb 13, 7:00 AM)43% (Feb 13, 4:00 PM)29.37 "Hg (Feb 6, 11:00 PM)
Average11 °F74%30.13 "Hg
* Reported Jan 30 2:00 PM — Feb 14 2:00 PM, Steinbach, Weather by CustomWeather, © 2016

Note: Actual official high and low records may vary slightly from our data, if they occured in-between our weather recording intervals... More about our weather records

Advertising

Steinbach Weather History for the Previous 24 Hours

 ConditionsComfort  
Time TempWeatherWind HumidityBarometerVisibility
2:00 PM
Sun, Feb 14
17 °FCold.8 mph80%29.76 "HgN/A
1:00 PM15 °FCold.7 mph85%29.78 "HgN/A
12:00 PM15 °FCold.5 mph87%29.80 "HgN/A
11:00 AM14 °FCold.7 mph86%29.81 "HgN/A
10:00 AM14 °FCold.6 mph85%29.83 "HgN/A
9:00 AM13 °FCold.3 mph83%29.85 "HgN/A
8:00 AM13 °FCold.5 mph84%29.86 "HgN/A
7:00 AM13 °FCold.6 mph80%29.89 "HgN/A
6:00 AM13 °FCold.6 mph80%29.92 "HgN/A
5:00 AM13 °FCold.6 mph72%29.93 "HgN/A
4:00 AM13 °FCold.5 mph68%29.95 "HgN/A
3:00 AM13 °FCold.5 mph67%30.00 "HgN/A
2:00 AM15 °FCold.6 mph55%30.03 "HgN/A
1:00 AM11 °FCold.2 mph61%30.06 "HgN/A
12:00 AM11 °FCold.2 mph55%30.09 "HgN/A
11:00 PM
Sat, Feb 13
11 °FCold.2 mph51%30.12 "HgN/A
10:00 PM9 °FFrigid.2 mph57%30.14 "HgN/A
9:00 PM8 °FFrigid.3 mph50%30.17 "HgN/A
8:00 PM7 °FFrigid.3 mph48%30.22 "HgN/A
7:00 PM7 °FFrigid.2 mphN/A30.25 "HgN/A
6:00 PM6 °FFrigid.2 mph46%30.28 "HgN/A
5:00 PM6 °FFrigid.3 mph45%30.31 "HgN/A
4:00 PM8 °FFrigid.7 mph43%30.35 "HgN/A
3:00 PM6 °FFrigid.6 mph45%30.37 "HgN/A
Weather by CustomWeather, © 2016

See weather overviewHow to use our weather pages